[[{"header":{"parameterUnit":"m.s-1","parameterCategory":1,"la1":30.2991,"la2":30.254,"lo1":-89.0895,"lo2":-89.0444,"dy":0.0017,"dx":0.0017,"nx":28,"ny":28,"refTime":"2023-07-31T09:00:00:Z","depth":0,"parameterNumber":2,"parameterNumberName":"U-component_of_WINDS"},"data":[0,0,0,0,0,0,0,0,0,0,0,0,0,0,0,0,0,0,0,0,0,0,0,0,0,0,0,0,0,0,0,0,0,0,0,0,0,0,0,0,0,0,0,0,0,0,0,0,0,0,0,0,0,0,0,0,0,0,0.1084,0.1085,0,0.1202,0.1203,0.1204,0.1258,0.1258,0.1257,0.1257,0.1381,0.1385,0.1388,0,0,0,0,0,0,0,0,0,0,0,0,0,0.0906,0.0909,0.1083,0.1085,0.1086,0.1202,0.1203,0.1205,0.1258,0.1258,0.1257,0.1257,0.138,0.1384,0.1388,0,0,0,0,0,0,0,0,0,0,0,0,0,0.1,0.091,0.1083,0.1127,0.1132,0.1201,0.1203,0.1205,0.1258,0.1258,0.1257,0.1257,0.1379,0.1384,0.1389,0.1425,0,0,0.1405,0.1407,0,0,0,0,0,0,0,0,0.0994,0.1006,0.1119,0.1124,0.113,0.1215,0.1186,0.1279,0.1258,0.121,0.1257,0.1257,0.1326,0.1336,0.1359,0.1431,0.1436,0.1405,0.1408,0.1411,0.1412,0,0,0,0,0,0,0,0.0988,0.1001,0.113,0.112,0.1127,0.1141,0.1154,0.1204,0.1268,0.1214,0.1218,0.1231,0.1329,0.1353,0.1362,0.1438,0.1405,0.141,0.1413,0.1415,0.1547,0.1548,0,0,0,0,0,0,0.0974,0.0996,0.1127,0.1134,0.106,0.1144,0.1159,0.1188,0.1268,0.128,0.1231,0.1233,0.1345,0.1356,0.1366,0.1415,0.1411,0.1415,0.1418,0.1547,0.1547,0.1548,0,0,0,0,0,0,0.097,0.0985,0.1122,0.1066,0.1084,0.1148,0.1179,0.119,0.1214,0.1281,0.1293,0.1244,0.1345,0.1359,0.141,0.142,0.1418,0.1422,0.1546,0.1547,0.1547,0.151,0,0,0,0,0,0,0.0964,0.0983,0.0997,0.1066,0.1087,0.1162,0.118,0.1193,0.1223,0.1226,0.1296,0.1307,0.1346,0.1402,0.1415,0.1427,0.1426,0.1546,0.1546,0.1547,0.1511,0.151,0.1508,0,0,0,0,0,0.0958,0.0982,0.0997,0.1013,0.1105,0.1163,0.1175,0.1219,0.1223,0.1238,0.1281,0.1305,0.1416,0.1407,0.1422,0.1435,0.1545,0.1546,0.1547,0.1512,0.151,0.1508,0,0,0,0,0,0,0.0914,0.0992,0.101,0.1057,0.1103,0.1172,0.1192,0.1215,0.1262,0.1263,0.1316,0.1331,0.1378,0.1412,0.14,0.1475,0.1483,0.1487,0.1451,0.145,0.1448,0.1439,0.1431,0,0,0,0,0,0.0909,0.0948,0.1015,0.105,0.1072,0.1128,0.1155,0.1184,0.1234,0.1254,0.13,0.1349,0.1395,0.1424,0.147,0.1516,0.1532,0.1533,0.1531,0.153,0.1533,0.156,0.1561,0.1551,0.1551,0.1551,0,0,0.0901,0.0948,0.097,0.1043,0.1082,0.1122,0.1144,0.1186,0.1216,0.1261,0.1311,0.1347,0.1405,0.1453,0.1477,0.1483,0.1539,0.1531,0.1529,0.1533,0.1561,0.1562,0.1563,0.1551,0.1551,0.1551,0,0,0.0906,0.0946,0.098,0.1018,0.1077,0.1113,0.1121,0.1187,0.1212,0.1264,0.1298,0.1336,0.1414,0.1453,0.1484,0.1504,0.1528,0.1518,0.1511,0.1537,0.1538,0.1539,0.1547,0.1549,0.152,0.152,0.152,0,0.0888,0.095,0.0994,0.1034,0.1065,0.1106,0.1141,0.1177,0.1248,0.1269,0.1274,0.1373,0.1415,0.1473,0.1478,0.1501,0.1513,0.151,0.1534,0.1535,0.1537,0.1545,0.1548,0.1519,0.1519,0.1519,0.1519,0,0.0925,0.0967,0.0988,0.1054,0.1088,0.1125,0.1176,0.1205,0.1231,0.1268,0.132,0.1371,0.1429,0.1445,0.1471,0.1507,0.1509,0.1523,0.1533,0.1536,0.1544,0.1547,0.1516,0.1517,0.1517,0.1518,0,0,0.0906,0.0997,0.1003,0.1034,0.1102,0.1136,0.1175,0.123,0.1254,0.1301,0.1336,0.1401,0.1415,0.1449,0.1481,0.1503,0.1517,0.1515,0.1518,0.1514,0.156,0.1549,0.1552,0.1533,0.1534,0.1534,0.1556,0,0.0921,0.0992,0.1034,0.1089,0.1129,0.1168,0.1203,0.1248,0.1283,0.1323,0.1362,0.1407,0.1422,0.1443,0.1467,0.151,0.1527,0.1509,0.1567,0.1569,0.1552,0.1556,0.1545,0.1563,0.1559,0.156,0.156,0,0.0948,0.0994,0.1052,0.1115,0.1134,0.1164,0.1218,0.1255,0.1308,0.1332,0.137,0.1401,0.1445,0.1451,0.1513,0.15,0.1526,0.1551,0.1552,0.156,0.1565,0.1564,0.1569,0.1572,0.1566,0.1565,0.1565,0,0.0928,0.1005,0.105,0.1075,0.115,0.117,0.1203,0.1255,0.1286,0.1333,0.1354,0.1406,0.1434,0.1474,0.1519,0.1519,0.1577,0.1586,0.1599,0.1598,0.161,0.1609,0.1619,0.1626,0.1626,0.1626,0.1626,0,0.0941,0.0975,0.1042,0.107,0.111,0.1158,0.1196,0.1232,0.1278,0.1314,0.1352,0.1385,0.1442,0.1482,0.1518,0.1564,0.1577,0.1598,0.1607,0.1595,0.1592,0.1613,0.1613,0.1626,0.1626,0.1626,0.1626,0,0.0926,0.0972,0.1024,0.109,0.1108,0.1134,0.1192,0.1221,0.1258,0.1303,0.1316,0.1374,0.1424,0.1472,0.1539,0.1563,0.1609,0.1621,0.1591,0.1596,0.1606,0.1605,0.1631,0.1637,0.1639,0.1639,0.1639,0,0.0931,0.0958,0.1028,0.1054,0.1085,0.1127,0.1158,0.1207,0.1238,0.13,0.1321,0.1373,0.1418,0.1495,0.1544,0.1596,0.161,0.1615,0.1618,0.1604,0.161,0.1608,0.1611,0.1614,0.1614,0.1613,0.1613,0,0.0935,0.0957,0.1,0.1051,0.1087,0.113,0.1174,0.1193,0.125,0.1283,0.1334,0.1368,0.1436,0.1488,0.1545,0.1579,0.1606,0.1612,0.1618,0.1606,0.1587,0.1598,0.1588,0.1611,0.1612,0.1612,0.1612,0.1612,0.0931,0.0957,0.101,0.1057,0.1095,0.1135,0.1166,0.1206,0.1249,0.1307,0.1333,0.1385,0.1437,0.1517,0.1551,0.1592,0.1599,0.1607,0.1609,0.1611,0.1608,0.158,0.1603,0.1603,0.1603,0.1603,0.1603,0,0.0938,0.0973,0.1016,0.1076,0.1113,0.1134,0.1184,0.1214,0.1258,0.1305,0.1347,0.1406,0.1456,0.1508,0.1562,0.1585,0.1599,0.1597,0.1597,0.1604,0.1599,0.1588,0.1585,0.1585,0.1585,0.1585,0.1585,0.1585,0.0945,0.0991,0.1019,0.1084,0.112,0.117,0.1196,0.1234,0.1272,0.1335,0.1376,0.141,0.1459,0.1516,0.1564,0.1578,0.1596,0.1591,0.1609,0.1603,0.1604,0.1606,0.1596,0.1595,0.1595,0.1611,0.1612,0.1612]},{"header":{"parameterUnit":"m.s-1","parameterCategory":1,"la1":30.2991,"la2":30.254,"lo1":-89.0895,"lo2":-89.0444,"dy":0.0017,"dx":0.0017,"nx":28,"ny":28,"refTime":"2023-07-31T09:00:00:Z","depth":0,"parameterNumber":3,"parameterNumberName":"V-component_of_WINDS"},"data":[0,0,0,0,0,0,0,0,0,0,0,0,0,0,0,0,0,0,0,0,0,0,0,0,0,0,0,0,0,0,0,0,0,0,0,0,0,0,0,0,0,0,0,0,0,0,0,0,0,0,0,0,0,0,0,0,0,0,2.7614,2.7614,0,2.7616,2.7616,2.7616,2.7576,2.7575,2.7574,2.7573,2.7572,2.7573,2.7574,0,0,0,0,0,0,0,0,0,0,0,0,0,2.7573,2.7574,2.7614,2.7614,2.7614,2.7616,2.7616,2.7616,2.7576,2.7575,2.7573,2.7572,2.7572,2.7573,2.7574,0,0,0,0,0,0,0,0,0,0,0,0,0,2.7585,2.7575,2.7614,2.7595,2.7593,2.7616,2.7616,2.7616,2.7576,2.7575,2.7573,2.7572,2.7571,2.7573,2.7574,2.7615,0,0,2.7579,2.7579,0,0,0,0,0,0,0,0,2.7584,2.7586,2.7598,2.7596,2.7594,2.7594,2.7601,2.7615,2.7577,2.7583,2.7573,2.7571,2.7581,2.7581,2.7585,2.7615,2.7615,2.7579,2.758,2.758,2.7581,0,0,0,0,0,0,0,2.7583,2.7586,2.7615,2.7598,2.7596,2.7585,2.7584,2.7603,2.759,2.7582,2.7579,2.758,2.7579,2.7584,2.7585,2.7615,2.7579,2.758,2.7581,2.7582,2.7673,2.7674,0,0,0,0,0,0,2.7586,2.7586,2.7615,2.7615,2.7585,2.7587,2.7586,2.7596,2.759,2.7588,2.7581,2.7578,2.7582,2.7583,2.7584,2.7628,2.758,2.7582,2.7583,2.7671,2.7673,2.7675,0,0,0,0,0,0,2.7585,2.7589,2.7615,2.7599,2.7602,2.7589,2.76,2.7596,2.7601,2.759,2.7587,2.7588,2.7581,2.7582,2.7607,2.7627,2.7582,2.7584,2.767,2.7672,2.7674,2.7717,0,0,0,0,0,0,2.7584,2.7589,2.7605,2.76,2.7603,2.7638,2.7601,2.7598,2.7603,2.7599,2.7595,2.7593,2.7579,2.7605,2.7608,2.7628,2.7585,2.7668,2.7671,2.7673,2.7714,2.7721,2.7727,0,0,0,0,0,2.7583,2.7618,2.7606,2.761,2.7623,2.764,2.7641,2.7625,2.7605,2.7621,2.7613,2.7593,2.7625,2.7607,2.7611,2.7632,2.7666,2.767,2.7673,2.7711,2.7719,2.7726,0,0,0,0,0,0,2.7626,2.7617,2.7604,2.7639,2.764,2.7633,2.7652,2.7635,2.7642,2.7638,2.7617,2.7617,2.7643,2.7641,2.7621,2.7669,2.7642,2.7646,2.7669,2.7677,2.7683,2.7682,2.7586,0,0,0,0,0,2.764,2.7655,2.7646,2.7678,2.7679,2.7665,2.7672,2.7659,2.766,2.766,2.7654,2.7655,2.7664,2.7671,2.768,2.7714,2.771,2.773,2.7736,2.7741,2.7745,2.7758,2.7765,2.7686,2.7686,2.7686,0,0,2.7669,2.7665,2.7676,2.7686,2.7686,2.7699,2.7666,2.7684,2.7693,2.7663,2.7684,2.768,2.7679,2.7707,2.7719,2.7705,2.7766,2.7746,2.775,2.775,2.7762,2.777,2.7776,2.7689,2.7688,2.7688,0,0,2.7726,2.7727,2.7751,2.7751,2.7751,2.7741,2.7747,2.7741,2.7737,2.7759,2.7735,2.7745,2.7763,2.7762,2.7764,2.7818,2.7798,2.7821,2.7854,2.7867,2.7873,2.7878,2.7894,2.79,2.7825,2.7825,2.7825,0,2.7762,2.7783,2.7766,2.7783,2.7787,2.776,2.7782,2.7783,2.7785,2.7787,2.7772,2.7791,2.7789,2.7814,2.7827,2.7831,2.7834,2.7821,2.7874,2.7879,2.7884,2.7898,2.7904,2.7828,2.7827,2.7827,2.7827,0,2.7823,2.7838,2.7858,2.7859,2.7865,2.7886,2.787,2.7878,2.7864,2.7855,2.7875,2.7871,2.7876,2.7882,2.787,2.7905,2.7895,2.7878,2.785,2.7894,2.7907,2.7913,2.7831,2.783,2.783,2.7829,0,0,2.7909,2.79,2.7907,2.7905,2.7901,2.7912,2.7929,2.7934,2.7939,2.7942,2.7953,2.7968,2.795,2.7952,2.7939,2.7951,2.7989,2.7931,2.793,2.7939,2.8022,2.8034,2.8041,2.7977,2.7978,2.7979,2.8021,0,2.7962,2.7992,2.7976,2.8007,2.8018,2.7992,2.8006,2.8004,2.7996,2.8003,2.7994,2.8003,2.7981,2.7981,2.7992,2.7982,2.8005,2.7979,2.7985,2.7985,2.7983,2.8048,2.8061,2.8101,2.8027,2.8028,2.8028,0,2.8028,2.8031,2.8064,2.8054,2.8058,2.8072,2.8072,2.8081,2.8077,2.807,2.8071,2.8053,2.8067,2.8042,2.8059,2.8041,2.8043,2.8038,2.8039,2.8037,2.8008,2.8044,2.8114,2.8119,2.8037,2.8036,2.8036,0,2.8082,2.8095,2.8115,2.8115,2.8106,2.8115,2.8111,2.8106,2.8108,2.8109,2.811,2.8113,2.8114,2.8115,2.8098,2.8082,2.8116,2.809,2.8108,2.8108,2.8115,2.8114,2.8182,2.8121,2.8121,2.8121,2.8121,0,2.8141,2.8161,2.8138,2.815,2.817,2.8151,2.8171,2.8164,2.8159,2.8167,2.8146,2.8154,2.8132,2.8137,2.8124,2.8138,2.8139,2.8132,2.8128,2.8132,2.8133,2.8131,2.8127,2.8122,2.8122,2.8122,2.8121,0,2.8205,2.8191,2.8209,2.8198,2.8196,2.821,2.82,2.8209,2.8199,2.8209,2.8211,2.8194,2.8199,2.8183,2.8185,2.8176,2.8195,2.8188,2.8197,2.8193,2.8211,2.8208,2.8278,2.8285,2.8222,2.8223,2.8223,0,2.8242,2.8256,2.8245,2.8249,2.8246,2.8254,2.8255,2.8237,2.8239,2.8234,2.8243,2.8246,2.8247,2.8255,2.8242,2.8243,2.8233,2.8258,2.8233,2.8236,2.8229,2.8228,2.8227,2.8262,2.8263,2.8264,2.8264,0,2.8307,2.8299,2.8303,2.8304,2.8307,2.8307,2.8305,2.831,2.8289,2.8293,2.8297,2.8298,2.8299,2.83,2.8298,2.8292,2.8273,2.8272,2.8276,2.8279,2.8282,2.8277,2.8207,2.827,2.827,2.8269,2.8269,2.8269,2.8356,2.8366,2.8359,2.8363,2.836,2.8358,2.8365,2.8355,2.8358,2.8357,2.8346,2.8352,2.8344,2.8339,2.8334,2.8337,2.8325,2.8332,2.8333,2.8334,2.8335,2.8284,2.8337,2.8337,2.8337,2.8337,2.8336,0,2.8417,2.8411,2.8415,2.8413,2.8415,2.8399,2.8395,2.8398,2.8403,2.8398,2.8399,2.8402,2.8403,2.839,2.8388,2.8393,2.8384,2.8393,2.8391,2.8389,2.8348,2.8343,2.84,2.84,2.84,2.8399,2.8399,2.8399,2.8449,2.8463,2.8454,2.8465,2.8459,2.8464,2.8463,2.846,2.8455,2.8459,2.846,2.8452,2.8442,2.844,2.8439,2.8435,2.8434,2.8445,2.8437,2.8399,2.8392,2.8386,2.8382,2.8446,2.8446,2.8478,2.8478,2.8479]}]]